Wind_Speed
40 40 39 39 39 39 39 39 39 38 38 38 38 38 38 38 38 37 36 35 34 34 33 31 28 26 23 24 25 26 28 29 29 29 28 26 24 21 18 17 16 15 18 23 28 31 32 32 35 37 38 39 38 38 37 37 38 39 40 40 41 42 42
42 41 41 40 40 40 40 40 39 39 38 38 38 38 37 37 37 37 36 35 35 34 33 30 28 27 27 27 27 27 29 29 28 28 27 25 24 23 20 18 16 16 16 18 22 28 32 33 34 35 36 36 37 38 38 39 40 42 43 43 44 44 45
41 41 41 41 40 40 40 40 40 40 39 38 37 36 36 35 35 35 35 35 35 34 32 30 29 29 29 29 28 29 29 28 27 27 26 24 24 23 21 19 17 16 16 16 18 22 27 32 34 36 37 37 37 38 39 40 43 45 45 45 46 47 47
40 40 41 41 40 39 38 38 38 38 37 36 34 33 32 32 32 33 34 33 33 32 31 30 30 30 30 29 29 29 29 28 26 25 25 24 23 23 22 20 18 17 17 17 18 19 22 26 30 33 36 38 39 40 41 42 44 46 46 46 47 48 48
41 41 41 41 40 39 38 37 37 36 35 32 30 30 30 30 30 31 32 31 31 31 30 30 30 31 31 30 30 29 29 28 27 25 24 24 23 23 22 20 19 18 18 18 18 19 21 23 25 27 29 32 35 38 41 43 45 46 47 47 47 48 48
41 41 41 41 41 41 41 40 38 36 34 32 31 31 31 31 31 32 33 33 33 33 33 33 33 32 32 30 30 30 29 28 27 25 25 25 25 24 23 21 20 19 19 19 19 20 21 23 24 25 26 27 29 32 35 38 42 44 45 45 46 45 45
42 41 42 43 43 44 44 43 41 39 37 37 37 36 36 37 37 37 38 38 38 37 37 37 36 34 32 31 30 30 29 28 27 26 26 26 27 26 25 24 23 22 22 22 22 22 23 23 24 25 26 27 28 30 32 34 36 38 40 41 41 41 40
45 43 43 45 46 47 47 46 45 44 43 42 42 42 43 43 43 43 43 42 41 40 38 37 36 34 32 31 30 30 29 27 26 26 27 28 28 28 27 26 26 26 26 26 26 26 26 25 25 25 26 27 29 30 31 32 34 35 36 37 38 38 38
48 46 45 47 49 49 50 49 48 47 47 46 46 46 46 46 46 45 45 44 43 40 38 36 35 34 32 31 31 31 30 29 28 27 28 28 29 29 29 29 29 29 29 30 30 30 29 29 28 28 28 29 31 31 32 33 34 35 36 37 38 39 39
49 49 49 49 50 51 52 52 50 49 47 47 46 46 46 46 46 46 45 44 42 40 38 36 35 34 33 33 33 32 32 32 31 30 30 30 30 31 32 32 33 33 33 34 34 33 32 32 32 32 32 32 32 32 33 35 36 38 38 39 40 41 43
50 51 50 50 50 50 51 52 51 49 48 47 47 46 46 46 45 45 45 45 43 41 39 37 36 35 34 35 35 35 34 33 33 32 32 33 33 34 35 36 37 38 38 38 37 36 35 34 34 34 35 35 34 34 35 36 38 40 41 41 42 43 45
51 51 51 50 49 49 49 48 48 47 46 45 45 44 44 44 44 45 45 45 44 42 40 38 37 36 37 37 37 36 35 35 35 35 35 36 37 38 39 40 41 41 41 41 40 39 38 37 36 36 37 37 36 37 37 38 39 41 42 43 44 45 46
52 52 51 50 49 48 46 46 45 43 42 42 43 43 43 43 44 44 44 43 42 41 40 38 38 38 38 38 37 36 36 36 37 37 38 39 40 41 42 43 43 43 44 43 42 41 39 39 38 38 38 39 39 40 40 41 42 43 43 44 45 47 48
51 51 51 50 49 48 47 47 46 45 45 45 45 45 44 44 43 42 42 41 40 40 39 38 37 37 37 37 37 37 38 38 39 41 42 43 44 44 44 43 44 46 46 45 43 42 41 40 40 40 40 40 41 43 44 45 45 45 45 45 47 49 50
50 50 51 51 51 51 50 50 49 48 47 47 46 46 44 43 42 41 40 40 40 39 39 38 38 39 39 40 40 41 42 43 45 46 48 48 47 44 43 44 47 48 48 46 44 43 42 43 44 44 43 43 43 45 46 46 47 47 48 48 49 50 51
48 48 49 49 48 47 46 47 48 48 46 46 46 45 43 42 40 40 40 40 41 41 41 42 42 43 43 44 45 47 47 48 49 49 49 47 44 42 45 49 51 50 49 46 44 43 44 46 46 46 45 45 46 46 47 48 49 50 50 51 51 52 52
46 45 46 46 45 44 44 45 45 44 43 43 44 43 42 42 41 41 41 42 43 43 44 44 45 46 47 48 48 49 49 49 48 47 45 43 43 47 51 53 53 52 49 46 45 45 46 47 47 48 48 48 48 49 49 50 51 51 52 52 53 53 53
45 45 45 45 45 45 45 46 46 44 41 40 41 41 41 41 42 42 43 43 43 45 46 47 47 48 48 49 48 48 48 47 46 46 46 46 50 54 55 53 52 52 49 47 47 47 48 48 48 48 49 49 50 51 52 53 53 53 53 53 53 53 52
43 44 44 44 45 46 46 47 48 48 46 44 45 46 45 44 45 45 45 45 46 47 48 48 49 49 48 48 48 48 48 48 48 50 51 53 55 55 52 50 49 49 48 48 48 48 48 48 48 49 50 52 54 54 55 56 56 56 55 54 53 53 53
43 44 43 43 46 47 47 49 51 51 51 49 49 50 51 51 51 51 51 51 51 51 51 51 52 52 52 52 52 51 51 51 51 52 53 54 53 51 49 48 48 48 48 48 49 50 50 50 51 53 56 58 59 59 59 59 58 58 57 55 54 54 55
41 43 43 44 46 47 49 52 54 54 54 53 53 54 55 55 55 54 54 55 55 55 55 56 56 57 57 56 56 55 54 53 52 52 53 53 52 50 49 49 50 50 50 51 52 54 54 55 56 60 63 64 63 61 60 59 58 58 56 55 55 55 56
44 46 48 49 50 50 51 53 54 54 54 54 54 55 56 56 55 55 56 57 57 58 59 59 60 60 60 59 58 57 56 54 54 54 54 54 53 52 52 53 54 54 55 56 57 57 58 60 63 67 68 66 64 62 60 59 57 56 55 55 55 56 57
49 49 51 53 53 54 54 54 54 54 54 55 55 54 54 55 56 56 57 58 59 60 61 61 61 61 61 60 59 58 57 57 56 56 56 57 57 57 58 59 60 60 60 60 60 61 62 65 69 72 70 67 64 62 60 58 56 55 55 55 56 57 58
50 50 53 55 56 56 57 57 58 58 57 57 56 55 55 56 58 58 58 59 60 60 59 58 58 58 58 58 58 59 60 60 60 60 60 61 62 63 63 63 63 62 62 63 64 65 68 71 74 73 70 66 64 62 60 58 56 55 55 56 57 59 59
53 54 56 57 58 59 59 60 60 60 60 58 57 58 58 59 59 59 59 59 60 60 59 57 57 58 59 59 60 61 61 62 63 64 65 66 66 66 65 65 65 65 66 67 68 70 73 76 76 72 67 65 63 60 58 57 56 56 56 57 58 59 60
57 57 58 58 59 61 61 61 61 61 60 59 58 58 59 59 60 60 61 61 62 62 61 60 60 61 62 62 63 63 63 64 66 67 69 69 68 68 67 68 68 69 70 71 73 76 77 77 74 69 65 62 60 58 57 56 57 57 57 57 59 61 62
61 61 60 60 61 61 62 63 63 63 63 62 60 59 60 61 62 63 65 65 66 66 66 66 67 68 68 68 68 68 69 70 71 72 72 71 71 70 70 71 72 73 75 77 78 79 78 75 71 66 63 60 58 57 56 57 58 59 59 60 62 65 67
63 63 63 63 63 63 64 65 66 67 68 67 65 64 65 66 67 68 69 69 70 70 71 72 73 75 76 76 76 75 75 75 74 73 71 70 70 71 73 75 77 78 79 80 81 80 77 73 68 64 61 60 59 59 60 61 62 63 64 65 67 69 70
63 64 64 65 65 66 66 67 68 69 69 69 69 69 70 71 72 74 75 75 75 74 74 74 75 76 77 78 78 78 77 76 73 71 71 72 73 76 79 81 82 82 82 81 80 76 72 68 64 63 62 61 62 63 63 64 64 65 66 68 70 71 72
64 65 65 66 67 68 68 68 69 70 70 71 71 72 74 76 78 79 79 79 79 78 77 76 76 76 77 78 78 78 78 77 77 77 78 79 81 83 85 85 85 82 79 76 72 68 65 62 61 62 62 61 62 62 62 63 65 67 69 72 73 73 74
66 66 67 67 68 69 69 70 71 72 73 74 75 77 80 82 83 82 82 82 81 80 79 78 77 76 77 78 79 80 80 80 81 83 84 84 85 83 81 80 78 74 70 68 66 65 64 61 59 61 64 64 65 65 66 69 70 71 73 75 75 76 76
70 70 70 71 71 72 73 75 76 77 78 80 81 83 84 85 85 85 85 85 84 82 81 80 79 78 78 79 80 81 81 79 79 81 83 84 82 77 73 73 74 73 71 71 71 70 69 65 62 64 68 70 70 71 73 74 74 74 76 77 77 78 78
76 76 77 77 78 79 80 81 82 83 84 85 85 86 86 87 88 88 88 88 87 85 83 83 82 82 81 82 82 82 82 81 80 81 82 82 80 76 74 76 79 79 78 77 76 75 73 71 69 70 72 74 74 74 75 76 75 76 78 78 78 79 79
80 81 82 83 84 85 85 86 87 88 88 89 89 89 90 91 91 92 92 91 89 88 86 86 85 85 84 84 83 83 83 83 83 83 83 82 81 79 78 79 79 80 80 79 78 77 76 75 74 74 74 75 76 76 76 76 76 76 77 77 78 78 78
83 83 84 85 86 88 89 90 91 91 92 92 93 93 93 94 94 94 93 92 91 89 88 88 87 87 87 86 85 85 84 84 84 85 84 83 82 81 80 80 79 80 80 80 79 78 77 77 76 75 74 75 76 75 75 76 76 76 76 76 76 77 78
86 87 87 88 89 91 92 93 93 94 95 95 95 96 96 96 96 95 95 93 92 91 89 88 88 87 87 86 85 85 84 83 84 84 83 82 82 82 81 81 80 80 80 79 79 78 78 78 77 76 76 77 77 77 78 79 79 79 78 78 77 78 80
90 91 92 93 94 95 95 95 96 96 96 97 97 97 97 96 95 94 92 91 90 89 89 88 87 86 86 86 85 84 83 83 83 83 83 82 82 82 82 81 80 80 80 79 79 78 79 79 79 79 79 79 79 80 82 83 83 82 82 81 82 83 84
Wind_Direction
268 269 271 274 276 278 281 283 285 286 285 286 289 292 295 296 298 300 302 303 305 307 307 305 301 300 302 306 310 314 318 323 326 329 331 331 333 332 324 314 304 294 278 264 258 258 262 263 262 261 261 262 263 263 263 263 263 264 265 266 267 269 270
268 269 270 272 274 277 280 282 284 285 287 289 291 293 295 296 298 299 300 301 302 303 302 300 298 298 300 304 308 311 314 319 322 325 326 326 329 331 330 324 315 307 297 283 269 262 261 262 263 262 262 261 262 262 262 262 262 262 264 265 267 268 270
268 269 270 271 273 276 279 281 283 284 287 289 291 292 294 296 297 298 299 299 299 298 297 296 295 295 298 302 304 307 310 313 316 318 319 319 321 324 327 327 323 316 307 298 287 276 268 264 263 263 264 264 264 264 264 264 264 264 266 268 270 272 274
269 270 270 270 272 274 277 280 282 284 286 287 289 291 293 295 297 297 297 297 296 295 293 293 293 294 297 299 302 304 305 307 309 311 311 311 313 316 318 318 317 315 313 308 302 294 285 278 273 270 269 269 268 268 268 268 269 271 272 274 275 277 278
267 268 268 269 270 272 275 278 281 284 285 285 286 289 291 293 295 297 297 296 294 293 292 292 293 294 297 298 299 300 301 303 305 306 304 304 306 310 313 312 309 308 309 310 308 304 299 294 291 287 283 278 274 273 272 272 273 275 276 277 277 279 280
265 266 267 268 270 272 275 278 280 282 282 282 283 285 289 291 293 296 297 297 295 294 293 294 294 295 296 296 295 296 298 300 302 301 299 298 300 304 309 310 306 303 303 304 304 302 302 302 301 299 296 291 284 280 277 276 276 276 277 277 277 278 280
263 266 267 268 270 273 276 277 278 278 278 278 279 281 285 289 290 293 296 298 298 296 294 293 293 294 294 293 293 294 295 297 299 298 295 294 295 298 303 306 305 302 301 300 299 298 300 301 302 301 299 295 289 286 284 282 281 280 279 279 279 279 280
262 265 267 268 270 273 275 275 275 275 276 277 278 280 282 286 288 290 293 296 298 297 295 292 292 292 291 290 290 290 291 293 294 292 291 292 293 295 298 300 301 301 301 300 299 299 299 298 298 297 295 291 289 288 288 287 286 285 284 284 283 283 284
263 265 266 266 268 271 272 273 274 275 276 277 278 280 282 284 287 289 291 294 295 295 293 292 292 291 290 289 288 287 288 290 290 290 290 290 292 293 295 297 297 298 298 297 298 299 298 297 296 294 290 287 286 287 288 288 288 287 287 287 287 287 287
265 265 266 266 267 269 271 274 276 277 278 280 281 282 284 285 287 288 290 291 293 292 291 290 291 291 291 290 288 286 287 289 290 290 290 291 291 292 294 295 295 295 295 296 296 296 295 295 294 292 289 287 286 286 286 286 286 286 286 287 288 288 288
265 266 267 268 269 271 272 274 277 280 282 283 284 284 284 285 285 287 288 289 290 291 290 289 289 289 290 290 288 287 287 289 290 291 292 291 291 292 293 294 295 295 295 295 295 294 293 292 292 292 290 288 286 284 283 284 284 285 286 286 287 288 289
266 267 269 270 271 273 274 276 278 280 281 282 282 281 282 283 284 285 286 287 289 289 288 287 287 286 288 289 288 286 287 288 290 291 292 292 292 293 294 294 294 294 294 294 293 292 291 291 291 292 290 288 285 284 284 286 286 286 287 288 289 290 292
267 268 269 270 271 272 273 274 275 277 277 277 278 280 282 283 285 285 286 286 286 287 286 286 285 284 285 285 285 285 286 288 290 291 292 292 292 293 293 293 293 293 293 292 290 289 289 289 290 291 290 287 286 285 287 288 288 287 287 289 291 293 295
269 269 269 269 269 270 270 271 273 275 276 278 280 283 285 286 287 286 286 286 287 287 286 285 283 281 281 282 282 284 286 288 289 290 291 291 291 292 292 292 293 293 291 289 288 287 287 288 290 291 289 288 287 288 289 290 290 289 290 291 292 294 295
270 270 270 270 270 271 271 272 274 277 279 281 283 285 286 287 286 286 286 286 287 286 284 282 281 280 280 281 283 285 286 287 288 289 289 288 288 289 291 293 294 292 289 287 286 286 287 289 292 292 292 291 292 292 293 294 294 293 293 293 293 294 294
268 268 269 270 271 272 272 272 273 276 279 280 281 282 284 284 283 282 282 283 284 283 281 280 279 279 280 282 284 285 286 286 287 287 286 285 285 287 292 296 296 292 288 286 285 285 288 292 294 295 296 296 296 296 296 295 294 293 293 293 292 291 291
261 262 264 266 267 267 268 269 270 271 272 274 277 279 280 279 278 278 279 280 280 280 279 278 277 278 280 282 284 285 286 286 286 285 283 282 284 289 295 297 295 291 287 284 284 286 290 293 295 296 297 298 297 297 295 294 293 292 291 291 290 290 290
257 256 258 261 263 263 265 267 268 267 266 269 274 279 279 278 277 277 278 278 278 278 278 278 278 278 280 282 283 283 284 285 284 283 282 283 287 291 294 294 292 288 284 282 284 287 291 294 295 296 297 297 297 296 295 294 293 293 292 292 291 291 292
253 255 256 259 262 262 264 266 267 266 266 267 271 276 278 278 277 277 277 277 277 278 279 279 279 280 280 281 282 283 284 284 283 283 284 286 289 290 291 290 288 284 281 282 284 288 291 292 293 295 296 297 298 297 296 296 295 295 295 294 294 293 294
250 255 257 259 262 263 264 266 268 269 271 271 272 274 276 277 278 278 278 278 279 279 280 280 280 281 281 282 284 285 285 285 284 285 287 288 289 289 288 287 286 283 281 281 284 286 289 290 292 295 298 299 299 298 297 297 297 296 296 295 294 294 295
248 254 257 259 262 264 266 267 270 272 274 275 275 275 276 277 277 277 278 279 280 281 281 282 282 282 283 284 285 286 286 286 285 286 287 288 288 287 287 286 285 283 280 280 282 285 288 290 293 297 300 301 300 299 298 297 296 295 293 292 291 292 294
249 254 257 260 263 265 267 268 270 272 273 274 276 277 277 277 276 277 278 279 281 282 283 283 283 283 284 284 285 286 286 286 285 285 286 286 286 286 286 285 284 282 280 280 283 286 289 292 296 300 301 301 299 298 297 295 294 292 290 289 288 290 293
254 256 258 260 263 265 266 267 268 269 270 272 274 276 277 277 277 278 279 281 282 284 284 284 284 285 285 286 286 286 286 285 285 284 284 285 285 285 285 285 284 283 282 283 285 288 291 294 298 300 300 299 298 296 296 294 293 291 289 288 288 291 294
255 256 258 260 262 263 265 266 267 267 268 269 271 274 275 276 278 279 280 281 282 283 284 285 286 286 286 286 286 285 285 284 283 283 283 284 285 285 285 284 283 283 283 284 287 289 292 295 298 299 299 297 296 295 295 294 292 291 289 288 288 290 294
254 256 258 260 261 262 263 264 265 265 265 267 270 273 275 276 278 280 281 281 282 283 283 282 282 284 285 285 284 284 283 282 282 282 283 284 284 284 283 283 282 281 282 284 286 289 291 295 297 297 296 295 294 294 293 291 290 289 288 287 288 290 293
255 256 257 258 259 260 261 262 262 262 263 266 269 273 276 278 280 281 282 282 282 282 282 280 280 282 283 284 283 282 281 281 281 282 283 284 283 283 282 281 281 282 283 285 287 289 293 295 296 296 295 294 294 293 291 290 289 288 288 287 288 290 292
257 257 256 256 256 257 258 259 258 259 261 264 267 270 274 277 279 280 281 282 282 282 281 281 280 280 281 281 281 280 280 280 281 283 283 283 283 282 282 282 283 284 286 287 289 292 294 295 295 295 294 293 291 289 288 287 286 286 286 286 287 288 290
255 256 255 255 254 255 255 256 257 257 260 262 265 268 272 276 278 279 280 281 281 281 281 280 279 279 279 279 279 280 280 281 282 282 282 281 280 281 282 283 284 285 286 288 291 292 293 293 293 292 291 288 286 285 284 284 283 282 283 284 285 287 287
254 255 255 255 255 255 255 256 256 258 259 261 263 266 269 273 276 278 280 281 282 282 281 279 278 278 278 278 279 280 280 281 281 280 279 278 279 280 281 283 284 285 287 289 290 291 290 291 291 290 288 286 285 284 284 283 282 282 282 284 285 286 286
254 254 255 255 255 256 256 256 256 258 259 261 262 265 268 272 275 278 280 282 283 283 282 280 279 277 277 277 277 278 278 278 278 277 277 278 279 280 282 283 284 286 287 287 287 287 287 289 289 287 285 284 284 284 283 282 281 283 284 285 285 286 286
253 254 254 255 255 255 256 257 257 259 260 262 264 267 270 273 276 278 280 282 283 283 282 280 279 278 277 276 276 276 276 276 277 277 277 277 279 281 283 283 284 284 284 283 282 282 283 285 284 281 281 281 281 280 280 280 281 283 284 284 284 285 285
252 254 254 255 255 256 257 258 260 261 263 266 268 270 273 275 277 279 280 281 282 282 280 279 278 278 277 277 277 277 277 277 277 277 278 278 279 280 280 280 280 281 280 280 280 280 281 281 278 276 277 278 279 278 278 280 282 282 282 282 283 284 285
254 255 255 256 257 258 259 261 262 264 266 268 270 272 274 275 277 278 279 280 281 280 280 279 279 278 278 278 277 277 277 277 277 277 278 279 279 279 278 278 278 279 279 279 280 280 280 280 278 276 277 278 278 277 278 279 280 280 281 282 283 284 285
256 257 257 259 260 261 262 263 265 266 268 269 270 272 273 274 276 277 278 279 279 279 278 278 278 278 278 278 278 278 278 278 277 277 277 278 278 278 278 278 278 278 279 279 279 279 279 278 278 278 278 278 278 278 279 279 279 279 280 281 282 283 284
256 258 259 261 262 263 264 266 267 268 269 270 270 271 272 274 275 277 278 278 278 278 278 278 278 278 278 278 277 277 277 277 276 277 277 277 277 277 277 277 277 278 278 279 279 280 279 278 278 277 277 277 277 277 278 278 278 278 279 280 281 282 283
257 258 260 261 263 265 266 267 268 269 270 271 271 272 273 274 275 276 277 277 277 276 276 276 276 277 277 277 277 276 276 276 276 276 276 276 277 277 277 277 278 278 278 279 280 280 280 280 280 279 277 276 276 276 275 275 276 276 277 278 278 279 279
258 259 260 262 263 264 265 266 267 268 269 270 271 272 273 274 275 276 276 277 277 276 276 276 275 275 275 275 275 275 275 276 276 276 277 277 277 278 278 278 279 279 279 280 280 280 280 280 280 279 278 278 278 278 277 277 277 276 276 277 277 278 279
Height
10661 10661 10661 10661 10661 10661 10661 10662 10663 10663 10664 10664 10664 10664 10665 10665 10665 10666 10666 10666 10667 10667 10668 10669 10669 10669 10669 10668 10668 10667 10665 10664 10662 10660 10659 10658 10659 10659 10659 10658 10658 10659 10659 10659 10660 10660 10660 10660 10660 10660 10661 10662 10663 10664 10663 10662 10661 10660 10660 10660 10659 10659 10658
10656 10656 10656 10657 10656 10656 10656 10657 10658 10659 10660 10660 10660 10660 10661 10661 10661 10662 10662 10663 10664 10664 10665 10666 10667 10667 10666 10666 10665 10665 10664 10662 10661 10658 10657 10656 10655 10656 10657 10656 10656 10656 10656 10656 10656 10656 10656 10656 10657 10657 10658 10659 10659 10659 10659 10658 10657 10656 10656 10656 10656 10654 10653
10651 10651 10652 10652 10652 10651 10652 10653 10654 10655 10655 10656 10656 10656 10656 10657 10657 10658 10659 10659 10660 10661 10662 10663 10664 10664 10663 10663 10663 10662 10662 10661 10660 10658 10656 10654 10653 10653 10654 10654 10653 10653 10653 10653 10653 10652 10652 10652 10652 10653 10654 10655 10656 10655 10655 10654 10653 10651 10651 10652 10652 10650 10649
10646 10647 10647 10647 10647 10647 10648 10649 10650 10651 10652 10652 10652 10652 10652 10653 10653 10654 10656 10656 10657 10658 10659 10659 10660 10660 10660 10660 10660 10660 10659 10659 10659 10657 10655 10653 10652 10651 10651 10651 10650 10649 10649 10649 10649 10649 10649 10648 10648 10649 10650 10651 10652 10651 10650 10649 10647 10646 10647 10648 10647 10645 10644
10642 10643 10643 10643 10643 10644 10644 10645 10646 10647 10648 10648 10648 10648 10649 10650 10650 10651 10652 10654 10654 10654 10655 10656 10656 10656 10656 10656 10656 10657 10657 10656 10656 10655 10653 10652 10650 10650 10649 10649 10648 10647 10646 10646 10646 10646 10646 10645 10645 10645 10646 10646 10647 10646 10645 10644 10642 10641 10642 10642 10641 10639 10638
10638 10639 10640 10640 10640 10640 10641 10642 10643 10644 10644 10645 10645 10645 10645 10646 10647 10648 10649 10650 10651 10651 10652 10652 10652 10652 10653 10653 10653 10653 10653 10653 10653 10652 10651 10649 10648 10648 10648 10647 10646 10645 10644 10643 10643 10643 10643 10642 10642 10642 10642 10642 10641 10640 10640 10639 10638 10637 10636 10636 10636 10634 10633
10634 10635 10636 10636 10636 10635 10636 10637 10639 10640 10641 10641 10641 10641 10641 10642 10643 10644 10645 10646 10647 10647 10648 10648 10648 10648 10649 10649 10649 10649 10649 10649 10649 10648 10648 10647 10646 10646 10645 10645 10644 10644 10643 10642 10641 10641 10640 10640 10639 10638 10638 10637 10636 10636 10635 10634 10633 10632 10631 10631 10630 10629 10628
10630 10631 10632 10632 10631 10630 10630 10631 10633 10635 10636 10637 10637 10637 10637 10637 10638 10639 10640 10641 10642 10643 10643 10643 10644 10644 10644 10645 10645 10645 10645 10646 10646 10645 10644 10644 10643 10643 10642 10642 10641 10641 10640 10640 10639 10638 10638 10637 10636 10635 10634 10633 10632 10631 10631 10630 10629 10628 10627 10626 10625 10624 10623
10626 10626 10627 10627 10626 10625 10624 10625 10627 10629 10631 10632 10633 10633 10633 10633 10634 10635 10636 10637 10638 10638 10639 10639 10639 10640 10640 10641 10641 10641 10641 10642 10642 10642 10641 10640 10639 10639 10638 10638 10638 10638 10637 10637 10636 10635 10634 10633 10633 10632 10630 10629 10628 10627 10626 10625 10624 10623 10623 10622 10621 10619 10619
10621 10621 10621 10622 10622 10622 10620 10619 10620 10623 10624 10626 10627 10628 10628 10629 10630 10631 10632 10632 10633 10634 10634 10635 10635 10635 10636 10637 10637 10637 10637 10637 10638 10637 10637 10636 10635 10635 10634 10634 10634 10634 10634 10633 10632 10632 10631 10630 10629 10628 10626 10625 10624 10623 10622 10621 10619 10618 10617 10617 10616 10614 10614
10615 10616 10617 10618 10618 10618 10616 10615 10616 10617 10619 10620 10621 10622 10623 10624 10625 10626 10627 10628 10629 10629 10630 10630 10630 10631 10632 10633 10633 10633 10633 10633 10633 10633 10632 10632 10631 10631 10630 10630 10630 10629 10629 10628 10628 10627 10626 10626 10625 10624 10622 10621 10620 10619 10617 10616 10614 10613 10612 10611 10610 10609 10608
10611 10612 10614 10614 10615 10614 10613 10612 10612 10613 10613 10614 10614 10615 10617 10618 10619 10621 10621 10622 10623 10624 10625 10625 10626 10626 10627 10628 10628 10628 10628 10628 10628 10628 10628 10627 10627 10626 10626 10625 10624 10624 10623 10623 10622 10622 10621 10621 10621 10620 10618 10617 10615 10614 10613 10612 10610 10608 10607 10605 10604 10603 10601
10609 10610 10610 10611 10611 10610 10609 10607 10607 10608 10608 10608 10608 10609 10611 10612 10613 10615 10615 10616 10617 10618 10619 10620 10621 10621 10622 10623 10623 10624 10624 10624 10624 10623 10623 10622 10622 10621 10620 10620 10619 10618 10617 10617 10616 10616 10616 10616 10616 10615 10614 10612 10610 10609 10608 10607 10605 10604 10602 10601 10599 10597 10595
10605 10605 10605 10605 10605 10605 10604 10602 10601 10601 10602 10602 10603 10604 10606 10607 10607 10608 10609 10610 10612 10613 10614 10615 10615 10616 10617 10617 10618 10618 10619 10619 10619 10618 10618 10617 10617 10616 10615 10614 10613 10612 10611 10611 10610 10609 10609 10609 10610 10609 10608 10607 10605 10603 10602 10600 10599 10597 10597 10596 10594 10591 10589
10600 10599 10598 10598 10598 10598 10598 10596 10595 10595 10595 10596 10597 10598 10600 10601 10602 10603 10603 10605 10606 10607 10608 10609 10610 10610 10611 10611 10612 10612 10613 10613 10613 10613 10613 10612 10611 10611 10610 10609 10607 10606 10605 10605 10604 10603 10602 10602 10602 10602 10601 10600 10599 10597 10595 10593 10591 10590 10589 10588 10587 10584 10582
10595 10594 10592 10591 10592 10591 10591 10590 10589 10589 10590 10590 10592 10593 10595 10596 10597 10597 10598 10599 10600 10602 10603 10603 10604 10604 10605 10605 10605 10606 10606 10606 10607 10607 10607 10606 10605 10605 10604 10603 10601 10600 10599 10599 10598 10597 10596 10595 10594 10593 10593 10592 10591 10590 10588 10586 10585 10583 10581 10580 10579 10577 10575
10591 10589 10588 10587 10587 10586 10586 10584 10583 10584 10585 10585 10586 10588 10590 10590 10591 10592 10593 10594 10595 10596 10597 10597 10598 10598 10599 10599 10599 10599 10599 10599 10599 10600 10600 10600 10599 10599 10597 10596 10594 10593 10593 10592 10592 10591 10590 10588 10587 10586 10584 10584 10583 10581 10580 10579 10578 10576 10575 10574 10572 10571 10569
10584 10583 10582 10582 10581 10581 10580 10578 10577 10578 10580 10581 10581 10583 10584 10584 10586 10587 10587 10588 10589 10590 10590 10591 10592 10592 10593 10593 10593 10593 10592 10592 10592 10592 10593 10593 10593 10592 10591 10590 10588 10587 10587 10586 10585 10584 10583 10582 10581 10579 10578 10577 10576 10574 10573 10571 10570 10569 10568 10566 10564 10563 10562
10577 10575 10576 10576 10574 10574 10574 10572 10570 10572 10575 10577 10578 10578 10578 10579 10580 10581 10581 10582 10583 10583 10584 10584 10585 10585 10586 10586 10586 10586 10586 10586 10585 10585 10585 10585 10585 10585 10584 10583 10582 10581 10581 10580 10579 10578 10577 10576 10575 10574 10574 10572 10571 10569 10567 10564 10562 10560 10559 10558 10556 10554 10552
10572 10569 10571 10571 10568 10568 10568 10567 10565 10566 10569 10572 10573 10573 10573 10573 10574 10575 10576 10576 10577 10577 10577 10578 10578 10579 10579 10579 10579 10579 10579 10578 10578 10577 10577 10576 10576 10576 10575 10575 10575 10575 10574 10574 10573 10572 10571 10570 10569 10568 10567 10566 10564 10562 10560 10557 10555 10552 10550 10549 10547 10546 10543
10568 10565 10565 10565 10563 10563 10563 10562 10561 10562 10563 10565 10566 10567 10567 10568 10569 10569 10570 10570 10571 10572 10572 10572 10572 10572 10572 10572 10572 10572 10571 10571 10570 10569 10568 10568 10568 10568 10567 10568 10568 10568 10567 10567 10567 10566 10564 10564 10563 10562 10560 10558 10556 10554 10552 10550 10548 10545 10543 10542 10540 10539 10537
10564 10563 10562 10561 10560 10559 10559 10558 10558 10558 10559 10559 10559 10559 10560 10561 10562 10563 10563 10564 10565 10565 10566 10566 10565 10565 10566 10566 10565 10565 10564 10563 10562 10562 10561 10561 10561 10561 10561 10561 10560 10560 10560 10559 10559 10558 10557 10555 10554 10553 10552 10550 10549 10547 10545 10544 10542 10540 10538 10536 10535 10533 10531
10560 10561 10559 10558 10557 10556 10555 10554 10554 10554 10554 10553 10553 10553 10553 10554 10555 10556 10557 10557 10558 10558 10557 10557 10558 10558 10558 10558 10558 10557 10557 10556 10555 10555 10554 10554 10554 10554 10554 10554 10553 10552 10551 10550 10549 10548 10547 10546 10545 10544 10543 10542 10540 10539 10538 10536 10535 10533 10531 10530 10528 10526 10524
10556 10556 10554 10552 10552 10552 10551 10550 10550 10550 10549 10548 10548 10548 10548 10548 10549 10550 10551 10551 10551 10551 10550 10550 10549 10549 10550 10550 10550 10549 10549 10549 10548 10548 10547 10547 10547 10547 10547 10546 10545 10543 10542 10541 10540 10539 10538 10537 10536 10535 10534 10532 10531 10530 10529 10528 10527 10525 10524 10522 10520 10518 10515
10550 10550 10548 10547 10546 10546 10545 10544 10545 10545 10544 10543 10543 10543 10543 10543 10543 10545 10546 10546 10546 10546 10546 10545 10544 10543 10543 10543 10543 10543 10542 10542 10541 10541 10540 10540 10539 10539 10539 10538 10536 10535 10534 10533 10532 10531 10530 10529 10528 10526 10525 10523 10522 10521 10520 10519 10519 10518 10517 10516 10514 10512 10509
10542 10543 10542 10542 10541 10540 10539 10539 10539 10539 10537 10538 10539 10538 10537 10538 10538 10538 10539 10539 10540 10540 10540 10540 10539 10538 10537 10536 10536 10535 10535 10534 10533 10532 10532 10531 10531 10531 10530 10529 10527 10526 10526 10525 10524 10523 10521 10520 10518 10517 10515 10513 10512 10511 10510 10509 10509 10508 10508 10507 10505 10503 10501
10535 10535 10535 10535 10534 10534 10533 10533 10533 10532 10531 10532 10533 10533 10532 10532 10532 10532 10531 10531 10532 10533 10533 10533 10533 10532 10531 10530 10529 10528 10527 10527 10526 10524 10523 10522 10521 10521 10520 10518 10517 10516 10515 10514 10513 10512 10511 10509 10508 10507 10506 10504 10503 10501 10501 10500 10499 10498 10498 10497 10496 10494 10492
10527 10527 10527 10527 10527 10528 10527 10527 10527 10526 10525 10525 10526 10526 10525 10526 10526 10525 10524 10524 10525 10525 10525 10525 10524 10523 10523 10522 10521 10520 10519 10518 10517 10516 10514 10513 10512 10511 10509 10507 10507 10506 10505 10504 10504 10503 10502 10500 10499 10498 10497 10495 10494 10493 10493 10492 10491 10490 10489 10488 10487 10485 10483
10519 10519 10519 10519 10520 10520 10520 10520 10519 10519 10518 10519 10519 10519 10518 10518 10518 10517 10517 10517 10517 10517 10517 10517 10516 10515 10513 10512 10512 10511 10510 10509 10509 10507 10506 10505 10503 10501 10500 10499 10497 10497 10496 10496 10494 10493 10493 10492 10491 10489 10487 10486 10485 10484 10483 10482 10481 10481 10480 10479 10477 10476 10474
10511 10512 10512 10512 10512 10512 10513 10512 10512 10512 10511 10511 10512 10511 10510 10510 10510 10509 10509 10508 10508 10507 10507 10507 10507 10506 10505 10503 10503 10502 10501 10501 10500 10499 10498 10496 10494 10493 10491 10489 10488 10489 10489 10487 10486 10485 10485 10487 10484 10479 10477 10478 10476 10475 10474 10471 10470 10470 10469 10467 10466 10464 10463
10504 10504 10505 10505 10505 10505 10505 10505 10504 10504 10503 10503 10504 10503 10503 10502 10501 10501 10501 10500 10499 10498 10497 10496 10496 10496 10495 10494 10494 10493 10493 10492 10490 10488 10488 10487 10486 10486 10483 10478 10477 10480 10479 10479 10479 10478 10480 10484 10481 10473 10468 10469 10469 10468 10465 10462 10462 10462 10459 10457 10455 10454 10452
10496 10497 10497 10497 10497 10497 10496 10496 10496 10496 10495 10495 10495 10495 10494 10493 10492 10492 10491 10491 10490 10489 10487 10486 10486 10486 10485 10484 10483 10483 10483 10483 10481 10478 10476 10476 10479 10481 10477 10469 10467 10469 10469 10469 10471 10471 10472 10477 10476 10468 10462 10461 10461 10459 10456 10454 10455 10453 10449 10447 10446 10444 10443
10488 10488 10488 10488 10488 10488 10487 10487 10487 10487 10487 10487 10486 10486 10485 10484 10483 10483 10482 10481 10480 10479 10477 10475 10475 10475 10474 10473 10473 10472 10471 10471 10470 10467 10465 10465 10467 10470 10467 10461 10459 10458 10458 10459 10460 10461 10462 10464 10464 10459 10455 10454 10452 10450 10448 10447 10447 10444 10440 10439 10437 10435 10434
10478 10478 10478 10478 10478 10478 10478 10478 10478 10478 10478 10478 10478 10477 10477 10475 10474 10473 10472 10471 10470 10468 10467 10465 10462 10462 10462 10462 10461 10460 10460 10459 10457 10455 10455 10455 10455 10456 10455 10452 10449 10447 10447 10448 10449 10450 10451 10451 10450 10448 10446 10443 10440 10440 10439 10437 10436 10434 10432 10431 10429 10427 10426
10470 10469 10469 10469 10469 10469 10469 10469 10469 10469 10469 10468 10468 10467 10467 10466 10465 10463 10461 10460 10459 10457 10456 10454 10452 10450 10449 10449 10449 10449 10449 10447 10445 10443 10444 10445 10444 10443 10443 10442 10440 10438 10436 10436 10437 10438 10438 10438 10438 10438 10436 10432 10430 10430 10428 10425 10423 10423 10422 10421 10420 10419 10416
10463 10462 10462 10461 10461 10461 10460 10460 10460 10459 10458 10458 10457 10456 10455 10454 10454 10453 10451 10449 10448 10447 10446 10444 10442 10440 10437 10436 10436 10436 10437 10436 10433 10432 10434 10434 10433 10431 10430 10430 10429 10427 10426 10426 10426 10426 10425 10425 10425 10426 10424 10422 10421 10420 10417 10414 10413 10412 10411 10411 10411 10409 10406
10455 10455 10454 10454 10453 10452 10452 10451 10451 10450 10449 10448 10447 10446 10445 10444 10443 10442 10440 10438 10435 10433 10433 10432 10431 10429 10427 10426 10425 10425 10425 10424 10422 10421 10422 10423 10421 10419 10418 10418 10417 10416 10415 10416 10416 10415 10414 10413 10413 10412 10411 10411 10411 10408 10403 10401 10400 10400 10400 10400 10399 10398 10395